Weather History for Gage, OK

Change the Weather History Date:

Monday, May 19, 2014

  Actual Average Record
Temperature  
Mean Temperature 81 °F -  
Max Temperature 97 °F 80 °F 102 °F (2004)
Min Temperature 66 °F 54 °F 35 °F (1971)
Cooling Degree Days 16    
Growing Degree Days 31 (Base 50)    
Moisture  
Dew Point 51 °F    
Average Humidity 39    
Maximum Humidity 65    
Minimum Humidity 16    
Precipitation  
Precipitation 0.00 in - - ()
Sea Level Pressure  
Sea Level Pressure 29.64 in    
Wind  
Wind Speed 27 mph (South)    
Max Wind Speed 36 mph    
Max Gust Speed 46 mph    
Visibility 10 miles    
Events      
Averages and records for this station are not official NWS values.
T = Trace of Precipitation, MM = Missing Value Source: NWS Daily Summary

Daily Weather History Graph

Daily Weather History Graph

Search for Another Location

Airport:

Trip Planner

Search our weather history database for the weather conditions in past years. The results will help you decide how hot, cold, wet, or windy it might be!

Date:

Astronomy

May. 19, 2014 Rise Set
Actual Time 6:29 AM CDT 8:41 PM CDT
Civil Twilight 6:00 AM CDT 9:11 PM CDT
Nautical Twilight 5:25 AM CDT 9:46 PM CDT
Astronomical Twilight 4:46 AM CDT 10:25 PM CDT
Moon 12:33 AM CDT (5/19) 11:26 AM CDT (5/19)
Length of Visible Light 15h 10m
Length of Day
14h 12m
Waning Gibbous, 71% of the Moon is Illuminated
May 19
Waning Gibbous
May 21
Last Quarter
May 28
New
Jun 5
First Quarter
Jun 12
Full

Hourly Weather History & Observations

Time (CDT) Temp. Heat Index Dew Point Humidity Pressure Visibility Wind Dir Wind Speed Gust Speed Precip Events Conditions
12:53 AM 70.0 °F - 55.0 °F 59% 29.71 in 10.0 mi South 29.9 mph 40.3 mph N/A   Clear
1:53 AM 69.1 °F - 55.0 °F 61% 29.69 in 10.0 mi South 27.6 mph 40.3 mph N/A   Clear
2:53 AM 69.1 °F - 54.0 °F 58% 29.68 in 10.0 mi South 28.8 mph 35.7 mph N/A   Clear
3:53 AM 68.0 °F - 54.0 °F 61% 29.67 in 10.0 mi South 26.5 mph 35.7 mph N/A   Clear
4:53 AM 66.9 °F - 54.0 °F 63% 29.67 in 10.0 mi South 23.0 mph 31.1 mph N/A   Clear
5:53 AM 66.0 °F - 54.0 °F 65% 29.68 in 10.0 mi South 18.4 mph 24.2 mph N/A   Clear
6:53 AM 66.0 °F - 54.0 °F 65% 29.68 in 10.0 mi South 20.7 mph 27.6 mph N/A   Clear
8:53 AM 73.0 °F - 55.0 °F 53% 29.69 in 10.0 mi South 26.5 mph 36.8 mph N/A   Clear
9:53 AM 77.0 °F - 55.0 °F 47% 29.69 in 10.0 mi SSW 27.6 mph 36.8 mph N/A   Clear
10:53 AM 82.0 °F 81.3 °F 54.0 °F 38% 29.68 in 10.0 mi SSW 28.8 mph 38.0 mph N/A   Clear
11:53 AM 86.0 °F 84.0 °F 53.1 °F 32% 29.67 in 10.0 mi SSW 25.3 mph 38.0 mph N/A   Clear
12:53 PM 90.0 °F - 50.0 °F 25% 29.65 in 10.0 mi SSW 27.6 mph 34.5 mph N/A   Clear
1:53 PM 93.0 °F - 50.0 °F 23% 29.64 in 10.0 mi South 32.2 mph 41.4 mph N/A   Clear
2:53 PM 95.0 °F - 48.0 °F 20% 29.62 in 10.0 mi SSW 28.8 mph 38.0 mph N/A   Clear
3:53 PM 96.1 °F - 43.0 °F 16% 29.60 in 10.0 mi South 25.3 mph 40.3 mph N/A   Clear
4:53 PM 96.1 °F - 46.0 °F 18% 29.57 in 10.0 mi South 35.7 mph 46.0 mph N/A   Clear
5:53 PM 95.0 °F - 48.0 °F 20% 29.58 in 10.0 mi South 31.1 mph 40.3 mph N/A   Partly Cloudy
6:53 PM 91.9 °F - 48.9 °F 23% 29.58 in 10.0 mi South 34.5 mph 41.4 mph N/A   Partly Cloudy
7:53 PM 90.0 °F - 48.0 °F 24% 29.59 in 10.0 mi South 27.6 mph 42.6 mph N/A   Scattered Clouds
8:53 PM 86.0 °F - 50.0 °F 29% 29.60 in 10.0 mi South 21.9 mph 29.9 mph N/A   Partly Cloudy
9:53 PM 84.0 °F - 52.0 °F 33% 29.61 in 10.0 mi South 26.5 mph 34.5 mph N/A   Clear
10:53 PM 82.9 °F - 51.1 °F 33% 29.63 in 10.0 mi South 26.5 mph 35.7 mph N/A   Clear
11:53 PM 80.1 °F - 50.0 °F 35% 29.63 in 10.0 mi South 25.3 mph 33.4 mph N/A   Clear